Regional Weather Roundup
Issued by NWS Upton, NY

Current Version | Previous Version | Graphics & Text | Print | Product List | Glossary Off
Versions: 1 2 3 4 5 6 7 8 9 10 11 12 13 14 15 16 17 18 19 20 21 22 23 24 25 26 27

000
ASUS41 KOKX 260609
RWROKX

REGIONAL WEATHER ROUNDUP
NATIONAL WEATHER SERVICE NEW YORK NY
200 AM EDT FRI MAY 26 2017

NOTE: "FAIR" INDICATES FEW OR NO CLOUDS BELOW 12,000 FEET WITH NO
SIGNIFICANT WEATHER AND/OR OBSTRUCTIONS TO VISIBILITY.

NYZ071-072-176-178-NJZ106-104-260700-
NEW YORK CITY METRO AREA

CITY           SKY/WX    TMP DP  RH WIND       PRES   REMARKS
Central Park   CLOUDY    57  56  96 VRB3      29.48F
Wall St Helipt LGT RAIN  58  57  97 NE10      29.45F
Bronx Bot Gard   N/A     55  54  94 NE2       29.49R
LaGuardia APRT LGT RAIN  58  56  93 N12       29.45F
Kennedy INTL   LGT RAIN  57  57 100 N18       29.45F
Breezy Point     N/A     55 N/A N/A N10G17      N/A
Newark/Liberty LGT RAIN  56  56 100 NE10      29.44F
Teterboro      LGT RAIN  57  56  96 N9        29.45F
$$

NYZ177-179-078>081-260700-
LONG ISLAND NEW YORK

CITY           SKY/WX    TMP DP  RH WIND       PRES   REMARKS
Jones Beach      N/A     57 N/A N/A NE10        N/A
Matinecock PT    N/A    102 N/A N/A E5          N/A
Farmingdale    RAIN      57  57 100 N13       29.44F
MacArthur/ISP  LGT RAIN  57  56  96 N12       29.45S
Shirley        LGT RAIN  59  59 100 CALM      29.46F
Mt Sinai Harb    N/A     54 N/A N/A NE7         N/A
Westhampton    HVY RAIN  58  56  93 E9        29.47S FOG
East Hampton   RAIN      54  53  97 NE7       29.47F
Montauk          N/A     54  54 100 NE8       29.49F
$$

NYZ052-065-067-260700-
HUDSON VALLEY

CITY           SKY/WX    TMP DP  RH WIND       PRES   REMARKS
White Plains   LGT RAIN  55  53  93 NW10      29.47S FOG
Larchmont Harb   N/A     55 N/A N/A N9          N/A
Croton O-T Hud   N/A     55 N/A N/A NE2         N/A
Newburgh       NOT AVBL
Montgomery     LGT RAIN  55  53  93 N9        29.49F
Poughkeepsie   CLOUDY    55  52  89 NW5       29.49F
Albany         CLOUDY    54  51  90 N7        29.54F
$$

NJZ001-105-106-008-010-013-015-019>022-104-260700-
NEW JERSEY

CITY           SKY/WX    TMP DP  RH WIND       PRES   REMARKS
Newark/Liberty LGT RAIN  56  56 100 NE10      29.44F
Teterboro      LGT RAIN  57  56  96 N9        29.45F
Caldwell       CLOUDY    59  56  89 VRB3      29.47F
Somerville     CLOUDY    59  57  93 N6        29.44F
Linden         RAIN      58  56  94 CALM      29.45F
Perth Amboy      N/A     57 N/A N/A N7          N/A
Sussex         CLOUDY    56  54  93 N3        29.51S
Andover          N/A     55  54  96 VRB6      29.49F
Trenton        CLOUDY    57  56  96 SW8       29.48R
Millville      CLOUDY    60  60 100 W6        29.51S
Atlantic City  LGT RAIN  59  56  89 W5        29.51R FOG
Wrightstown    MOCLDY    57  56  96 S8        29.47R
Toms River     CLOUDY    56  56 100 SW6       29.49S
Belmar         CLOUDY    58  56  93 SW3       29.49R
$$

PAZ047>061-062-071-260700-
EASTERN PENNSYLVANIA

CITY           SKY/WX    TMP DP  RH WIND       PRES   REMARKS
Philadelphia   LGT RAIN  58  57  97 S3        29.51S FOG
Allentown      LGT RAIN  59  56  89 S5        29.49R
Scranton       CLOUDY    59  56  89 CALM      29.51S
$$

CTZ002-004>006-009-010-012-RIZ004-006-007-MAZ004-011-015-260700-
SOUTHERN NEW ENGLAND
 IN CT

CITY           SKY/WX    TMP DP  RH WIND       PRES   REMARKS
Bradley INTL   LGT RAIN  51  50  96 N13       29.52F
Hartford       LGT RAIN  52  50  93 N15G22    29.51F
Danbury        LGT RAIN  52  52 100 VRB5      29.49S
Wtrbury/Oxford   N/A     52  46  82 NE10G16   29.50S
Bridgeport     RAIN      56  53  90 NE14      29.47R
Meriden        LGT RAIN  52  50  93 N10       29.49F
New Haven      LGT RAIN  54  52  93 N14       29.47F
Chester        RAIN      54  54 100 N8        29.48F
Groton         LGT RAIN  54  52  93 N10       29.45F
Wilimantic     LGT RAIN  53  51  93 NE8       29.50F

 IN RI

CITY           SKY/WX    TMP DP  RH WIND       PRES   REMARKS
Providence     LGT RAIN  52  52 100 N15       29.51F
Block Island   CLOUDY    53  52  96 NE9       29.49F
Westerly       LGT RAIN  54  53  97 NE7       29.47F
 IN MA

CITY           SKY/WX    TMP DP  RH WIND       PRES   REMARKS
Boston         DRIZZLE   50  50 100 N10       29.55F
Worcester      RAIN      47  45  93 N13G23    29.54F
Westfield      RAIN      50  50 100 N16G25    29.52F
Provincetown   CLOUDY    55  55 100 S7        29.51F
Nantucket      LGT RAIN N/A N/A N/A S14       29.54F
$$

ANZ330-335-338-340-345-350-353-355-260700-
COASTAL MARINE OBSERVATIONS


STATION/POSITION TIME  SKY/WX   TEMP    WIND        PRES    VSBY  WAVE
                                AIR SEA DIR/SP/G                  HT/PER
                 (UTC)          (F)     (DEG/KT/KT) (MB)    (MI)  (FT/S)
NY HARB ENTRANCE 0450            58 56  320/ 21/ 23  995.6          4/ 8
20 S FIRE ISLAND 0550            57 55  240/  6/  8  996.3          6/ 8
GREAT SOUTH BAY  0515            59 62  120/  8/ 12   N/A
23 SSW MONTAUK P 0550            56 54               997.9          6/ 8
15 E BARNEGAT LI 0530               58                N/A           6/ 8
HUDSON CANYON    0450            56 54  190/ 16/ 17  998.6          6/ 8
KINGS POINT      0548            56 57   70/ 10/ 13  997.2
EXECUTION ROCKS  0545            57                   N/A
CENTRAL LI SOUND 0515            55      20/ 12/ 16   N/A           2/ 3
EASTERN LI SOUND NOT AVBL
ROBBINS REEF     0548            58     360/ 11/ 13  997.8
$$


>>>>>>>>>>>>>>>>>>>>>>>>>>>> KEY <<<<<<<<<<<<<<<<<<<<<<<<<<<
>                                                          <
>     SKY/WX - Sky Condition/Present Weather               <
>     TMP    - Temperature in Fahrenheit                   <
>     DP     - Dew Point in Fahrenheit                     <
>     RH     - Relative Humidity in Percent                <
>     WIND   - Direction (from) and Speed in MPH           <
>     PRES   - Mean Sea Level Pressure (inches of Hg)      <
>     WCI    - Wind Chill Index                            <
>     VSB    - VISIBILITY IN MILES                         <
>     HX     - HEAT INDEX                                  <
>     TC     - TEMPERATURE IN CELSIUS                      <
>     VRB    - VARIABLE WIND DIRECTION                     <
>                                                          <
>>>>>>>>>>>>>>>>>>>>>>>>>>>> KEY <<<<<<<<<<<<<<<<<<<<<<<<<<<




USA.gov is the U.S. government's official web portal to all federal, state and local government web resources and services.